Time,TemperatureF,DewpointF,PressureIn,WindDirection,WindDirectionDegrees,WindSpeedMPH,WindSpeedGustMPH,Humidity,HourlyPrecipIn,Conditions,Clouds,dailyrainin,SoftwareType,DateUTC
2013-10-25 06:11:00,52.0,50.0,30.21,SE,136,1.0,5.0,92,0.00,,,0.00,,2013-10-25 13:11:00,
2013-10-25 06:21:00,52.0,50.0,30.21,SE,136,1.0,5.0,92,0.00,,,0.00,,2013-10-25 13:21:00,
2013-10-25 06:41:00,51.0,49.0,30.22,SE,133,1.0,8.0,93,0.00,,,0.00,,2013-10-25 13:41:00,
2013-10-25 06:52:00,51.0,49.0,30.22,SE,134,0.0,2.0,93,0.00,,,0.00,,2013-10-25 13:52:00,
2013-10-25 07:11:00,51.0,49.0,30.21,SE,137,2.0,5.0,93,0.00,,,0.00,,2013-10-25 14:11:00,
2013-10-25 07:22:00,51.0,49.0,30.21,East,94,3.0,7.0,93,0.00,,,0.00,,2013-10-25 14:22:00,
2013-10-25 07:42:00,51.0,49.0,30.21,ENE,76,0.0,5.0,93,0.00,,,0.00,,2013-10-25 14:42:00,
2013-10-25 07:52:00,51.0,49.0,30.22,East,98,0.0,5.0,93,0.00,,,0.00,,2013-10-25 14:52:00,
2013-10-25 08:11:00,51.0,49.0,30.22,ENE,67,0.0,3.0,93,0.00,,,0.00,,2013-10-25 15:11:00,
2013-10-25 08:21:00,52.0,50.0,30.22,ESE,103,1.0,3.0,93,0.00,,,0.00,,2013-10-25 15:21:00,
2013-10-25 08:43:00,52.0,50.0,30.23,East,94,0.0,4.0,93,0.00,,,0.00,,2013-10-25 15:43:00,
2013-10-25 08:53:00,52.0,50.0,30.24,ENE,78,1.0,5.0,93,0.00,,,0.00,,2013-10-25 15:53:00,
2013-10-25 09:12:00,52.0,50.0,30.24,East,95,2.0,7.0,93,0.00,,,0.00,,2013-10-25 16:12:00,
2013-10-25 09:23:00,52.0,50.0,30.24,ENE,66,2.0,5.0,93,0.00,,,0.00,,2013-10-25 16:23:00,
2013-10-25 09:43:00,52.0,50.0,30.24,East,86,2.0,7.0,93,0.00,,,0.00,,2013-10-25 16:43:00,
2013-10-25 09:53:00,52.0,50.0,30.25,ENE,78,1.0,5.0,93,0.00,,,0.00,,2013-10-25 16:53:00,
2013-10-25 10:13:00,53.0,51.0,30.25,ENE,58,2.0,5.0,93,0.00,,,0.00,,2013-10-25 17:13:00,
2013-10-25 10:22:00,53.0,51.0,30.25,NE,53,1.0,4.0,93,0.00,,,0.00,,2013-10-25 17:22:00,
2013-10-25 10:43:00,53.0,51.0,30.25,East,90,1.0,3.0,92,0.00,,,0.00,,2013-10-25 17:43:00,
2013-10-25 10:52:00,53.0,51.0,30.25,NE,46,2.0,7.0,92,0.00,,,0.00,,2013-10-25 17:52:00,
2013-10-25 11:12:00,54.0,52.0,30.25,ENE,63,2.0,4.0,92,0.00,,,0.00,,2013-10-25 18:12:00,
2013-10-25 11:21:00,54.0,52.0,30.25,East,94,1.0,5.0,92,0.00,,,0.00,,2013-10-25 18:21:00,
2013-10-25 11:42:00,55.0,53.0,30.25,East,92,1.0,8.0,92,0.00,,,0.00,,2013-10-25 18:42:00,
2013-10-25 11:52:00,55.0,52.0,30.25,South,187,1.0,7.0,91,0.00,,,0.00,,2013-10-25 18:52:00,
2013-10-25 12:11:00,55.0,52.0,30.25,ENE,72,0.0,7.0,91,0.00,,,0.00,,2013-10-25 19:11:00,
2013-10-25 12:22:00,55.0,52.0,30.24,NNW,329,0.0,6.0,91,0.00,,,0.00,,2013-10-25 19:22:00,
2013-10-25 12:42:00,55.0,52.0,30.25,NNW,342,0.0,4.0,90,0.00,,,0.00,,2013-10-25 19:42:00,
2013-10-25 12:52:00,55.0,52.0,30.25,SE,146,0.0,4.0,90,0.00,,,0.00,,2013-10-25 19:52:00,
2013-10-25 13:11:00,56.0,53.0,30.25,SE,138,2.0,6.0,90,0.00,,,0.00,,2013-10-25 20:11:00,
2013-10-25 13:22:00,58.0,55.0,30.24,East,80,1.0,8.0,89,0.00,,,0.00,,2013-10-25 20:22:00,
2013-10-25 13:42:00,58.0,54.0,30.24,ENE,65,3.0,8.0,86,0.00,,,0.00,,2013-10-25 20:42:00,
2013-10-25 13:52:00,58.0,54.0,30.24,NNE,33,1.0,5.0,86,0.00,,,0.00,,2013-10-25 20:52:00,
2013-10-25 14:11:00,57.0,53.0,30.24,East,79,1.0,5.0,86,0.00,,,0.00,,2013-10-25 21:11:00,
2013-10-25 14:21:00,57.0,53.0,30.24,East,84,0.0,6.0,86,0.00,,,0.00,,2013-10-25 21:21:00,
2013-10-25 14:43:00,57.0,53.0,30.24,NW,319,2.0,4.0,86,0.00,,,0.00,,2013-10-25 21:43:00,
2013-10-25 14:54:00,57.0,53.0,30.24,WNW,299,2.0,6.0,86,0.00,,,0.00,,2013-10-25 21:54:00,
2013-10-25 15:13:00,56.0,52.0,30.23,WNW,292,3.0,7.0,86,0.00,,,0.00,,2013-10-25 22:13:00,
2013-10-25 15:23:00,55.0,51.0,30.23,NW,313,3.0,7.0,87,0.00,,,0.00,,2013-10-25 22:23:00,
2013-10-25 15:42:00,55.0,52.0,30.23,NNW,331,3.0,6.0,88,0.00,,,0.00,,2013-10-25 22:42:00,
2013-10-25 15:52:00,55.0,52.0,30.23,NW,309,3.0,7.0,89,0.00,,,0.00,,2013-10-25 22:52:00,
2013-10-25 16:12:00,56.0,53.0,30.23,NW,320,2.0,9.0,89,0.00,,,0.00,,2013-10-25 23:12:00,
2013-10-25 16:22:00,56.0,53.0,30.23,West,269,1.0,4.0,89,0.00,,,0.00,,2013-10-25 23:22:00,
2013-10-25 16:42:00,56.0,52.0,30.23,NW,311,4.0,7.0,87,0.00,,,0.00,,2013-10-25 23:42:00,
2013-10-25 16:52:00,56.0,52.0,30.23,NW,316,3.0,7.0,88,0.00,,,0.00,,2013-10-25 23:52:00,
2013-10-25 17:11:00,56.0,52.0,30.23,NW,321,1.0,4.0,88,0.00,,,0.00,,2013-10-26 00:11:00,
2013-10-25 17:21:00,56.0,52.0,30.23,NW,321,1.0,4.0,88,0.00,,,0.00,,2013-10-26 00:21:00,
2013-10-25 17:42:00,55.0,52.0,30.23,WNW,284,1.0,6.0,88,0.00,,,0.00,,2013-10-26 00:42:00,
2013-10-25 17:52:00,55.0,52.0,30.23,NW,321,0.0,5.0,89,0.00,,,0.00,,2013-10-26 00:52:00,
2013-10-25 18:12:00,55.0,52.0,30.23,NW,318,1.0,3.0,89,0.00,,,0.00,,2013-10-26 01:12:00,
2013-10-25 18:21:00,55.0,52.0,30.24,North,360,0.0,5.0,89,0.00,,,0.00,,2013-10-26 01:21:00,
2013-10-25 18:42:00,55.0,52.0,30.23,North,5,0.0,6.0,90,0.00,,,0.00,,2013-10-26 01:42:00,
2013-10-25 18:52:00,55.0,52.0,30.23,NW,321,0.0,3.0,90,0.00,,,0.00,,2013-10-26 01:52:00,
2013-10-25 19:12:00,55.0,52.0,30.24,NW,324,0.0,1.0,90,0.00,,,0.00,,2013-10-26 02:12:00,
2013-10-25 19:22:00,55.0,52.0,30.24,NW,313,0.0,0.0,90,0.00,,,0.00,,2013-10-26 02:22:00,
2013-10-25 19:42:00,54.0,51.0,30.24,NW,313,0.0,2.0,91,0.00,,,0.00,,2013-10-26 02:42:00,
2013-10-25 19:52:00,54.0,51.0,30.24,NW,314,1.0,4.0,91,0.00,,,0.00,,2013-10-26 02:52:00,
2013-10-25 20:12:00,54.0,51.0,30.24,NW,308,1.0,4.0,91,0.00,,,0.00,,2013-10-26 03:12:00,
2013-10-25 20:21:00,54.0,51.0,30.25,WNW,301,1.0,5.0,91,0.00,,,0.00,,2013-10-26 03:21:00,
2013-10-25 20:44:00,54.0,52.0,30.25,WNW,298,0.0,4.0,92,0.00,,,0.00,,2013-10-26 03:44:00,
2013-10-25 20:54:00,54.0,52.0,30.25,WNW,302,0.0,2.0,92,0.00,,,0.00,,2013-10-26 03:54:00,
2013-10-25 21:14:00,54.0,52.0,30.25,NW,309,0.0,4.0,92,0.00,,,0.00,,2013-10-26 04:14:00,
2013-10-25 21:24:00,54.0,52.0,30.25,NW,319,0.0,2.0,92,0.00,,,0.00,,2013-10-26 04:24:00,
2013-10-25 21:43:00,54.0,52.0,30.26,NW,321,0.0,0.0,92,0.00,,,0.00,,2013-10-26 04:43:00,
2013-10-25 21:54:00,54.0,52.0,30.26,West,259,1.0,4.0,93,0.00,,,0.00,,2013-10-26 04:54:00,
2013-10-25 22:13:00,53.0,51.0,30.27,NNW,342,0.0,3.0,93,0.00,,,0.00,,2013-10-26 05:13:00,
2013-10-25 22:23:00,53.0,51.0,30.26,NNW,331,0.0,3.0,93,0.00,,,0.00,,2013-10-26 05:23:00,
2013-10-25 22:43:00,53.0,51.0,30.26,NW,324,0.0,4.0,93,0.00,,,0.00,,2013-10-26 05:43:00,
2013-10-25 22:52:00,53.0,51.0,30.27,SE,134,2.0,7.0,93,0.00,,,0.00,,2013-10-26 05:52:00,
2013-10-25 23:12:00,53.0,51.0,30.26,SSW,209,1.0,7.0,93,0.00,,,0.00,,2013-10-26 06:12:00,
2013-10-25 23:22:00,53.0,51.0,30.26,South,180,2.0,8.0,93,0.00,,,0.00,,2013-10-26 06:22:00,
2013-10-25 23:42:00,53.0,51.0,30.26,SSE,150,4.0,9.0,93,0.00,,,0.00,,2013-10-26 06:42:00,
2013-10-25 23:52:00,53.0,51.0,30.27,East,88,1.0,8.0,93,0.00,,,0.00,,2013-10-26 06:52:00,